Starlink 1765

operational
NORAD ID: 46344 Int'l Des: 2020-062 Owner: SPXS Country: US Constellation: starlink
LEOCIRCULARSTARLINK_TYPE

Über Starlink 1765

Beschreibung wird geladen...

Live-Position

3D-Globus wird geladen...

Nächste Überflüge

Höhenverlauf

Altitude vs Time

uPlot chart will show altitude changes over time

Zweizeiliger Elementsatz

1 46344U 20062V 25257.50876179 -.00000241 00000-0 27258-5 0 9992
2 46344 53.0557 67.5237 0001392 93.8363 266.2785 15.06396675278039
Epoch: 14. Sept. 2025 • Age: 19 hours

Aktueller Status

Höhe 551.3 km
Geschwindigkeit 7.59 km/s
Subsatellitenpunkt 45.73°N, 5.51°E
Startdatum 3. Sept. 2020
Alter 5 years
Typ internet

Technische Details

Klassifizierung Payload
Masse 260.00 kg
Trockenmasse 248.00 kg
Gesamtmasse 260.00 kg
Länge 0.20 m
Durchmesser 2.80 m
Spannweite 9.00 m
Form Box + pan
Hersteller SPXS
Bus-Typ Starlink
Phasenstatus In Orbit
Besitzer/Staat SPXS/US

Große Konstellationen

Loading constellations...